Location: Prairie Dale
(45.6972°N, 104.5033°W)
Time: 21:19:40
(UTC+00:00)

DX 1 - Pass Details

Date: 09 July 2022
Orbit: 616 x 630 km, 98.4° (Epoch: 13 August)

Event Time Altitude Azimuth Distance (km) Brightness Sun altitude
Rises 04:00:29 0° 17° (NNE) 2,927 ? -10.3°
Reaches altitude 10° 04:02:43 10° 21° (NNE) 2,013 ? -10.6°
Maximum altitude 04:07:03 60° 101° (E) 721 ? -11.1°
Drops below altitude 10° 04:11:20 10° 182° (S) 1,989 ? -11.6°
Enters shadow 04:11:44 - 183° (S) 2,157 ? -11.6°
